STARLINK-34816

Last updated on Thu Oct 02 2025 00:02:05 GMT+0000 (Coordinated Universal Time)

1 65467U 25195K 25274.50002315 -.01827158 00000+0 -48273-1 0 9994 2 65467 53.1590 280.6844 0001462 51.6973 91.4860 15.41123669 4953

Satellite not in orbit

STARLINK-34816